Location: Gaast
(52.9002°N, 5.8891°E)
Time: 03:03:40
(UTC+00:00)

Cosmos 1140 Rocket - Pass Details

Date: 18 November 2025
Orbit: 740 x 761 km, 74.1° (Epoch: 15 December)

Event Time Altitude Azimuth Distance (km) Brightness Sun altitude
Rises 16:53:05 0° 204° (SSW) 3,197 7.4 -11.2°
Reaches altitude 10° 16:55:27 10° 205° (SSW) 2,273 6.6 -11.5°
Maximum altitude 17:00:37 87° 293° (WNW) 758 3.5 -12.3°
Drops below altitude 10° 17:05:47 10° 25° (NNE) 2,275 5.6 -13.0°
Enters shadow 17:06:40 - 26° (NNE) 2,619 5.9 -13.2°
